�N����,����,�~����,�C��,���x,�C��,����,���ϕ���,�ő�u�ԕ���,�ő厞����,���˗�,�I�_���x,�n�����x,�ő啗���N��,DTYPE
"21/08/03","00:10",0.0,27.1,79.0,1002.9,280.3,0.6,1.2,130.7,0.00,23.2,27.4,"00:00:56",1
"21/08/03","00:20",0.0,27.1,79.0,1002.4,310.6,0.5,1.0,336.7,0.00,23.2,27.5,"00:18:32",1
"21/08/03","00:30",0.0,27.2,79.3,1002.6,63.3,0.3,1.1,348.8,0.00,23.3,27.5,"00:21:36",1
"21/08/03","00:40",0.0,27.4,79.2,1002.4,353.3,0.3,1.0,309.0,0.00,23.5,27.7,"00:35:12",1
"21/08/03","00:50",0.0,27.2,79.0,1002.4,283.9,0.6,1.4,332.9,0.00,23.3,27.5,"00:40:02",1
"21/08/03","01:00",0.0,27.0,79.1,1002.6,248.6,0.3,1.4,333.9,0.00,23.1,27.6,"00:50:08",1
"21/08/03","01:10",0.0,27.3,79.9,1002.2,155.3,0.6,2.2,138.3,0.00,23.6,27.3,"01:06:32",1
"21/08/03","01:20",0.0,27.7,79.8,1001.9,149.1,1.0,2.4,151.7,0.00,23.9,27.4,"01:16:40",1
"21/08/03","01:30",0.0,27.8,79.1,1002.2,41.7,0.7,2.0,85.1,0.00,23.9,27.4,"01:24:08",1
"21/08/03","01:40",0.0,27.7,79.2,1002.2,31.0,0.3,0.9,302.9,0.00,23.8,27.3,"01:33:12",1
"21/08/03","01:50",0.0,27.4,79.8,1002.2,80.9,0.3,1.2,83.5,0.00,23.6,27.5,"01:41:28",1
"21/08/03","02:00",0.2,26.9,80.5,1002.2,328.3,0.3,0.9,353.0,0.00,23.3,27.3,"01:54:32",1
"21/08/03","02:10",0.0,26.8,82.0,1001.9,329.9,0.6,1.1,300.8,0.00,23.5,27.4,"02:05:04",1
"21/08/03","02:20",0.0,26.4,83.6,1001.7,324.0,1.1,2.2,333.1,0.00,23.4,27.1,"02:15:12",1
"21/08/03","02:30",0.0,26.2,84.6,1001.7,327.6,1.0,1.9,317.1,0.00,23.4,27.3,"02:22:16",1
"21/08/03","02:40",0.0,26.0,85.4,1001.9,297.7,0.6,1.1,307.2,0.00,23.4,27.3,"02:30:40",1
"21/08/03","02:50",0.0,26.0,86.0,1001.9,313.0,0.7,1.2,342.7,0.00,23.5,27.4,"02:48:56",1
"21/08/03","03:00",0.0,25.9,86.5,1002.2,316.0,0.8,1.1,321.6,0.00,23.5,27.2,"02:56:16",1
"21/08/03","03:10",0.0,26.0,87.0,1001.9,326.7,1.0,1.6,343.7,0.00,23.7,27.3,"03:08:16",1
"21/08/03","03:20",0.0,25.9,87.3,1001.9,325.6,1.0,1.8,315.5,0.00,23.7,27.2,"03:12:48",1
"21/08/03","03:30",0.0,25.8,87.6,1002.2,318.3,1.1,2.0,327.0,0.00,23.6,27.2,"03:23:36",1
"21/08/03","03:40",0.0,25.8,87.8,1001.9,298.2,0.7,1.9,335.4,0.00,23.7,27.2,"03:37:20",1
"21/08/03","03:50",0.0,25.8,88.0,1001.9,284.5,0.3,1.1,328.1,0.00,23.7,27.2,"03:41:44",1
"21/08/03","04:00",0.0,25.8,88.1,1001.5,298.7,1.0,3.4,315.0,0.00,23.7,27.0,"03:57:20",1
"21/08/03","04:10",0.0,25.9,88.1,1001.2,318.4,1.1,2.1,340.2,0.00,23.8,27.2,"04:02:48",1
"21/08/03","04:20",0.0,25.9,88.1,1001.5,312.3,0.8,2.4,306.8,0.00,23.8,26.9,"04:14:56",1
"21/08/03","04:30",0.0,26.0,87.9,1001.9,320.2,1.0,2.0,324.3,0.00,23.9,27.1,"04:24:56",1
"21/08/03","04:40",0.0,26.2,87.5,1001.5,264.7,0.6,1.3,253.6,0.00,24.0,27.2,"04:35:52",1
"21/08/03","04:50",0.0,26.2,87.3,1001.5,254.6,0.6,1.3,228.4,0.00,24.0,26.9,"04:42:00",1
"21/08/03","05:00",0.0,26.2,87.0,1001.5,359.3,1.1,2.9,101.3,0.00,23.9,27.2,"04:55:52",1
"21/08/03","05:10",0.0,26.3,86.4,1001.5,135.4,0.7,1.8,355.3,0.00,23.9,27.1,"05:09:20",1
"21/08/03","05:20",0.0,26.5,85.9,1001.9,77.4,0.5,1.4,347.2,0.00,24.0,27.1,"05:17:28",1
"21/08/03","05:30",0.0,26.7,85.3,1001.7,87.5,0.6,1.8,54.2,0.00,24.1,27.0,"05:20:08",1
"21/08/03","05:40",0.0,26.6,85.3,1001.5,175.7,0.6,1.3,139.5,0.00,24.0,27.0,"05:33:12",1
"21/08/03","05:50",0.0,26.5,85.6,1001.5,236.4,0.5,1.3,143.3,0.00,23.9,27.0,"05:49:04",1
"21/08/03","06:00",0.2,26.5,86.1,1001.9,218.0,1.0,2.4,222.6,0.00,24.0,26.8,"05:53:44",1
"21/08/03","06:10",0.0,26.1,86.6,1001.9,215.7,0.7,1.6,234.5,0.00,23.7,27.0,"06:02:32",1
"21/08/03","06:20",0.6,26.1,87.2,1002.2,2.1,0.5,1.2,352.9,0.00,23.8,26.8,"06:19:12",1
"21/08/03","06:30",1.6,26.1,87.8,1002.2,275.0,0.6,1.2,331.0,0.00,24.0,26.8,"06:28:32",1
"21/08/03","06:40",1.4,25.8,88.4,1002.2,351.5,0.5,1.7,354.3,0.00,23.8,27.1,"06:30:02",1
"21/08/03","06:50",1.2,25.8,89.0,1001.9,339.0,0.7,1.3,354.4,0.00,23.9,26.9,"06:40:08",1
"21/08/03","07:00",0.0,25.6,89.4,1002.2,329.7,0.3,0.9,330.3,0.00,23.8,26.9,"06:52:00",1
"21/08/03","07:10",0.0,25.9,89.9,1002.2,226.1,0.7,1.4,244.8,0.00,24.2,26.6,"07:00:02",1
"21/08/03","07:20",0.0,26.1,90.2,1002.2,254.4,0.8,1.9,240.8,0.00,24.4,26.9,"07:16:24",1
"21/08/03","07:30",0.0,26.1,90.5,1002.2,273.7,0.6,1.4,271.8,0.00,24.5,26.8,"07:26:08",1
"21/08/03","07:40",0.0,26.2,90.8,1002.6,264.7,0.7,2.1,240.7,0.00,24.6,26.6,"07:34:48",1
"21/08/03","07:50",0.2,26.2,91.1,1002.4,306.4,0.5,1.0,262.2,0.00,24.7,26.6,"07:40:08",1
"21/08/03","08:00",1.2,26.2,91.3,1002.4,276.8,0.6,1.7,305.2,0.00,24.7,26.8,"07:51:28",1
"21/08/03","08:10",3.6,26.3,91.5,1002.4,271.3,0.6,1.7,339.8,0.00,24.8,26.7,"08:09:04",1
"21/08/03","08:20",0.6,26.3,91.8,1002.6,308.1,0.8,1.6,351.8,0.00,24.9,26.8,"08:19:04",1
"21/08/03","08:30",0.0,26.4,92.0,1002.6,248.8,0.3,1.4,193.6,0.01,25.0,26.6,"08:25:36",1
"21/08/03","08:40",0.0,26.6,92.1,1002.4,116.8,0.8,2.4,134.6,0.01,25.3,26.8,"08:33:44",1
"21/08/03","08:50",0.0,26.8,92.2,1002.9,79.4,0.8,3.2,76.7,0.02,25.5,26.9,"08:44:16",1
"21/08/03","09:00",0.2,26.8,92.3,1002.9,90.8,0.8,2.2,67.7,0.00,25.5,26.6,"08:58:00",1
"21/08/03","09:10",0.0,26.8,92.3,1002.9,146.5,1.5,4.9,127.9,0.00,25.5,26.9,"09:04:48",1
"21/08/03","09:20",0.4,26.8,92.5,1003.1,161.8,1.3,2.8,166.3,0.01,25.5,26.6,"09:10:24",1
"21/08/03","09:30",0.2,26.3,92.5,1003.4,168.2,2.0,4.8,203.9,0.02,25.0,26.7,"09:21:20",1
"21/08/03","09:40",0.4,26.3,92.8,1003.4,162.5,1.2,2.5,217.4,0.02,25.1,26.7,"09:34:00",1
"21/08/03","09:50",0.0,26.1,92.9,1003.8,150.2,1.3,2.5,124.4,0.03,24.9,26.7,"09:44:18",1
"21/08/03","10:00",0.0,26.1,93.0,1004.1,156.4,1.3,2.6,122.5,0.04,24.9,26.6,"09:53:30",1
"21/08/03","10:10",0.0,26.2,93.1,1004.5,176.0,1.5,3.1,160.4,0.03,25.0,26.7,"10:02:00",1
"21/08/03","10:20",0.0,26.2,93.2,1004.5,185.1,1.3,2.5,227.8,0.00,25.1,26.6,"10:16:00",1
"21/08/03","10:30",0.0,26.1,93.2,1004.5,189.1,1.2,2.7,198.4,0.00,25.0,26.7,"10:26:32",1
"21/08/03","10:40",0.2,26.1,93.2,1004.8,162.9,1.6,3.4,165.1,0.02,25.0,26.8,"10:39:12",1
"21/08/03","10:50",0.0,26.1,93.4,1004.8,159.2,1.6,2.9,147.2,0.06,25.0,26.7,"10:41:04",1
"21/08/03","11:00",0.0,26.2,93.4,1005.2,160.7,1.2,2.5,122.8,0.05,25.1,26.7,"10:56:40",1
"21/08/03","11:10",0.0,26.2,93.5,1005.2,176.2,1.2,2.5,144.6,0.03,25.1,26.6,"11:07:04",1
"21/08/03","11:20",0.0,26.1,93.4,1005.2,151.1,1.6,3.6,146.4,0.03,25.0,26.7,"11:14:00",1
"21/08/03","11:30",0.0,26.2,93.6,1005.5,153.1,0.8,2.1,127.8,0.03,25.1,26.8,"11:20:16",1
"21/08/03","11:40",0.2,26.1,93.6,1005.2,143.1,1.1,2.1,132.3,0.02,25.0,26.8,"11:33:04",1
"21/08/03","11:50",0.0,26.3,93.8,1005.0,139.7,1.3,3.2,121.5,0.07,25.3,26.7,"11:44:32",1
"21/08/03","12:00",0.0,26.5,93.7,1005.2,133.6,1.0,1.7,113.5,0.10,25.4,27.0,"11:53:28",1
"21/08/03","12:10",0.0,26.6,93.6,1005.2,147.8,0.7,1.8,166.0,0.07,25.5,26.8,"12:00:40",1
"21/08/03","12:20",0.0,26.6,93.7,1005.2,157.3,1.0,2.2,146.1,0.09,25.5,26.7,"12:16:08",1
"21/08/03","12:30",0.0,26.8,93.6,1005.0,183.1,1.2,2.9,207.5,0.14,25.7,26.8,"12:22:56",1
"21/08/03","12:40",0.0,26.8,93.1,1005.0,169.4,1.1,2.5,195.9,0.14,25.6,26.8,"12:39:12",1
"21/08/03","12:50",0.0,26.6,92.9,1004.8,164.7,1.2,2.1,221.6,0.10,25.4,26.7,"12:44:48",1
"21/08/03","13:00",0.0,26.7,92.9,1005.0,188.6,1.1,2.0,189.4,0.08,25.5,27.0,"12:50:40",1
"21/08/03","13:10",0.0,27.0,92.8,1004.8,189.7,0.5,1.4,159.9,0.06,25.8,27.1,"13:00:24",1
"21/08/03","13:20",0.0,27.5,92.8,1004.8,217.2,0.5,1.4,204.4,0.15,26.3,26.9,"13:13:44",1
"21/08/03","13:30",0.0,27.7,92.4,1004.5,211.0,0.6,1.4,120.0,0.18,26.4,26.9,"13:20:02",1
"21/08/03","13:40",0.0,28.0,92.1,1004.3,180.7,0.6,1.9,220.6,0.22,26.6,26.9,"13:32:08",1
"21/08/03","13:50",0.0,27.9,91.3,1004.8,178.2,1.0,2.2,199.6,0.21,26.4,26.8,"13:44:48",1
"21/08/03","14:00",0.0,28.2,90.1,1005.0,205.5,1.0,2.4,206.9,0.24,26.5,26.9,"13:53:12",1
"21/08/03","14:10",0.0,28.2,89.0,1005.5,198.3,1.6,3.1,230.1,0.25,26.3,27.1,"14:00:56",1
"21/08/03","14:20",0.0,28.9,87.2,1005.5,188.8,1.3,2.5,241.7,0.32,26.6,27.1,"14:10:56",1
"21/08/03","14:30",0.0,29.5,84.5,1005.7,183.1,1.0,1.9,214.9,0.27,26.6,27.1,"14:24:00",1
"21/08/03","14:40",0.0,29.7,81.8,1005.7,173.7,0.8,1.4,170.8,0.23,26.3,27.3,"14:33:36",1
"21/08/03","14:50",0.0,30.1,80.8,1005.7,232.6,0.8,2.1,204.7,0.22,26.5,27.2,"14:45:44",1
"21/08/03","15:00",0.0,30.0,79.5,1005.7,322.1,1.2,2.6,331.3,0.27,26.1,27.2,"14:55:28",1
"21/08/03","15:10",0.0,30.3,78.3,1006.2,321.0,1.0,2.6,341.0,0.24,26.1,27.4,"15:03:28",1
"21/08/03","15:20",0.0,30.2,77.3,1005.7,337.1,1.3,3.4,337.2,0.25,25.8,27.3,"15:16:40",1
"21/08/03","15:30",0.0,30.4,75.9,1006.0,309.9,0.8,2.4,342.3,0.22,25.7,27.6,"15:21:36",1
"21/08/03","15:40",0.0,30.4,75.5,1006.2,6.1,1.1,2.2,345.7,0.17,25.6,27.7,"15:31:04",1
"21/08/03","15:50",0.0,30.6,75.2,1005.5,8.8,1.0,2.0,20.0,0.20,25.7,27.5,"15:48:24",1
"21/08/03","16:00",0.0,30.9,74.4,1005.5,5.9,0.8,1.8,4.2,0.17,25.9,27.5,"15:56:16",1
"21/08/03","16:10",0.0,30.6,73.8,1005.7,335.6,0.7,1.3,356.7,0.11,25.4,27.8,"16:00:16",1
"21/08/03","16:20",0.0,30.4,74.5,1005.5,305.7,0.6,1.3,348.6,0.09,25.4,27.6,"16:14:24",1
"21/08/03","16:30",0.0,30.2,76.1,1005.2,292.3,0.5,1.2,245.4,0.07,25.6,27.9,"16:21:12",1
"21/08/03","16:40",0.0,30.0,76.6,1005.2,188.4,0.6,2.0,202.2,0.06,25.5,27.7,"16:36:08",1
"21/08/03","16:50",0.0,29.8,76.7,1005.2,168.2,0.5,1.4,154.3,0.05,25.3,27.7,"16:40:32",1
"21/08/03","17:00",0.0,29.8,76.9,1005.2,295.6,0.5,1.1,319.4,0.04,25.3,27.8,"16:57:04",1
"21/08/03","17:10",0.0,30.1,78.4,1005.0,319.9,0.3,1.0,342.5,0.04,26.0,27.6,"17:07:20",1
"21/08/03","17:20",0.0,29.6,80.4,1004.8,337.9,1.0,1.7,347.9,0.02,25.9,27.9,"17:15:52",1
"21/08/03","17:30",0.0,29.0,81.7,1004.5,313.6,0.7,1.7,346.7,0.01,25.6,28.0,"17:22:00",1
"21/08/03","17:40",0.0,28.5,82.0,1004.8,191.5,0.8,2.6,229.3,0.00,25.2,28.0,"17:39:04",1
"21/08/03","17:50",0.0,28.3,82.5,1004.5,168.1,1.5,2.7,162.0,0.00,25.1,27.9,"17:40:32",1
"21/08/03","18:00",0.0,28.3,83.1,1005.0,170.2,1.0,1.8,176.9,0.01,25.2,27.7,"17:50:32",1
"21/08/03","18:10",0.0,28.1,83.4,1005.0,169.7,1.2,2.2,159.7,0.01,25.1,27.9,"18:03:20",1
"21/08/03","18:20",0.0,27.9,83.6,1005.0,154.6,0.8,2.6,127.5,0.01,24.9,27.7,"18:19:12",1
"21/08/03","18:30",0.0,27.9,84.0,1005.5,185.7,0.8,2.0,152.6,0.00,25.0,27.8,"18:27:12",1
"21/08/03","18:40",0.0,27.8,84.1,1005.5,188.0,0.8,2.1,150.0,0.00,24.9,27.8,"18:31:36",1
"21/08/03","18:50",0.0,27.9,84.4,1005.5,237.5,1.3,2.8,233.7,0.00,25.1,27.7,"18:42:56",1
"21/08/03","19:00",0.0,27.7,84.5,1005.5,285.1,1.0,1.9,326.2,0.00,24.9,27.7,"18:56:48",1
"21/08/03","19:10",0.0,27.7,85.1,1005.7,342.6,1.0,2.0,5.6,0.00,25.0,27.9,"19:09:36",1
"21/08/03","19:20",0.0,27.3,85.7,1005.5,336.9,0.8,1.8,357.5,0.00,24.7,27.8,"19:10:40",1
"21/08/03","19:30",0.0,27.1,86.4,1005.7,335.0,0.8,1.4,342.0,0.00,24.7,27.8,"19:20:16",1
"21/08/03","19:40",0.0,26.9,87.0,1005.7,338.1,0.7,1.2,355.7,0.00,24.6,27.7,"19:38:32",1
"21/08/03","19:50",0.0,26.8,87.4,1006.2,294.0,0.5,1.3,330.3,0.00,24.6,27.5,"19:40:16",1
"21/08/03","20:00",0.0,26.5,87.9,1006.2,333.9,0.5,1.0,305.0,0.00,24.4,27.6,"19:54:24",1
"21/08/03","20:10",0.0,26.6,88.4,1006.2,308.5,0.8,1.9,346.4,0.00,24.6,27.5,"20:04:56",1
"21/08/03","20:20",0.0,26.6,88.9,1006.2,0.8,0.7,1.4,11.7,0.00,24.7,27.6,"20:14:32",1
"21/08/03","20:30",0.0,26.3,89.1,1006.7,331.9,0.7,1.4,341.4,0.00,24.4,27.7,"20:21:36",1
"21/08/03","20:40",0.0,26.3,89.5,1006.7,317.4,1.0,1.8,337.2,0.00,24.5,27.5,"20:33:12",1
"21/08/03","20:50",0.0,26.0,89.8,1006.7,325.2,0.7,1.1,346.0,0.00,24.2,27.6,"20:41:36",1
"21/08/03","21:00",0.0,25.8,90.0,1006.9,314.5,0.3,0.8,321.7,0.00,24.1,27.6,"20:55:28",1
"21/08/03","21:10",0.0,25.6,90.3,1007.1,317.6,0.6,1.1,338.6,0.00,23.9,27.4,"21:02:40",1
"21/08/03","21:20",0.0,25.6,90.6,1006.9,282.4,0.6,1.0,260.8,0.00,24.0,27.4,"21:13:52",1
"21/08/03","21:30",0.0,25.7,90.8,1006.9,297.2,0.7,1.2,307.0,0.00,24.1,27.3,"21:20:40",1
"21/08/03","21:40",0.0,25.4,90.9,1007.1,318.2,0.6,0.9,330.3,0.00,23.8,27.3,"21:34:40",1
"21/08/03","21:50",0.0,25.3,91.1,1007.1,327.9,0.5,1.0,334.6,0.00,23.8,27.3,"21:43:04",1
"21/08/03","22:00",0.0,25.1,91.3,1007.4,335.1,0.6,1.0,336.9,0.00,23.6,27.3,"21:55:04",1
"21/08/03","22:10",0.0,25.0,91.4,1007.6,322.8,0.6,1.0,317.2,0.00,23.5,27.5,"22:03:04",1
"21/08/03","22:20",0.0,24.9,91.6,1007.6,307.5,0.2,0.6,256.8,0.00,23.5,27.4,"22:19:52",1
"21/08/03","22:30",0.0,24.9,91.7,1007.1,292.7,0.6,1.4,263.3,0.00,23.5,27.2,"22:24:24",1
"21/08/03","22:40",0.0,24.8,91.9,1007.4,313.4,0.6,1.1,336.7,0.00,23.4,27.2,"22:34:24",1
"21/08/03","22:50",0.0,24.9,92.1,1007.4,347.9,0.7,1.3,7.3,0.00,23.6,27.2,"22:47:28",1
"21/08/03","23:00",0.0,24.7,92.2,1007.4,304.5,0.6,1.0,351.4,0.00,23.4,27.1,"22:50:08",1
"21/08/03","23:10",0.0,24.6,92.3,1007.6,322.1,0.6,1.2,328.7,0.00,23.3,27.0,"23:06:48",1
"21/08/03","23:20",0.0,24.5,92.4,1007.4,307.1,0.6,1.0,324.1,0.00,23.2,27.2,"23:14:40",1
"21/08/03","23:30",0.0,24.6,92.5,1007.4,324.9,0.8,1.4,336.3,0.00,23.3,27.0,"23:26:56",1
"21/08/03","23:40",0.0,24.5,92.6,1007.4,343.4,0.7,1.1,339.9,0.00,23.3,27.0,"23:30:08",1
"21/08/03","23:50",0.0,24.3,92.7,1007.4,334.0,0.7,1.0,336.1,0.00,23.1,26.9,"23:41:28",1
"21/08/03","24:00",0.0,24.2,92.8,1007.8,333.3,0.6,1.2,338.3,0.00,23.0,27.0,"23:56:40",1
